Location: Gilevgi
(36.8751°N, 30.0581°E)
Time: 08:54:29
(UTC+00:00)

Okean 1-7 Rocket - Pass Details

Date: 17 March 2026
Orbit: 609 x 643 km, 82.5° (Epoch: 19 April)

Event Time Altitude Azimuth Distance (km) Brightness Sun altitude
Rises 16:44:48 0° 208° (SSW) 2,937 7.4 -8.0°
Reaches altitude 10° 16:47:14 10° 218° (SW) 2,033 6.7 -8.5°
Maximum altitude 16:51:17 32° 282° (WNW) 1,102 5.7 -9.3°
Drops below altitude 10° 16:55:22 10° 346° (NNW) 2,041 6.5 -10.1°
Sets 16:57:49 0° 357° (N) 2,951 7.2 -10.6°
